User: anonymous   Login
Location: Unspecified
(0.0000°N, 0.0000°E)
Time: 21:56:13
(UTC+00:00)
Language:

UPM/SAT 1 - Orbit

View from above orbital plane
View from above orbital plane
View from above satellite
View from above satellite

Ground track
Ground track

The orbit data is extracted from the following two-line orbital elements,

1 23607U 95033C   18115.53878409  .00000080  00000-0  18695-4 0  9999
2 23607  98.3614 325.3253 0005999  13.2993 346.8373 14.78288525226300
Epoch (UTC): 25 April 2018 12:55:50
Eccentricity: 0.0005999
inclination: 98.3614°
perigee height: 630 km
apogee height: 639 km
right ascension of ascending node: 325.3253°
argument of perigee: 13.2993°
revolutions per day: 14.78288525
mean anomaly at epoch: 346.8373°
orbit number at epoch: 22630

The dashed part of the orbit path shows where the satellite is in the earth's shadow,  

DLR